Weather History for Harlan, KY

Change the Weather History Date:

Monday, September 23, 2013

  Actual Average (KLOZ) Record (KLOZ)
Temperature  
Mean Temperature 62 °F 66 °F  
Max Temperature 73 °F 77 °F 95 °F (2007)
Min Temperature 50 °F 54 °F 37 °F (1999)
Degree Days  
Heating Degree Days 4 3  
Month to date heating degree days 20  
Since 1 July heating degree days 21  
Cooling Degree Days 0 3  
Month to date cooling degree days 126  
Year to date cooling degree days 1150  
Growing Degree Days 12 (Base 50)    
Moisture  
Dew Point 53 °F    
Average Humidity 84    
Maximum Humidity 100    
Minimum Humidity 53    
Precipitation  
Precipitation 0.00 in 0.11 in 3.07 in (2006)
Month to date precipitation 2.58  
Year to date precipitation 35.26  
Sea Level Pressure  
Sea Level Pressure 30.04 in    
Wind  
Wind Speed 2 mph (NE)    
Max Wind Speed 7 mph    
Max Gust Speed -    
Visibility 6 miles    
Events      
T = Trace of Precipitation, MM = Missing Value Source: NWS Daily Summary

Daily Weather History Graph

Daily Weather History Graph

Search for Another Location

Airport:

Trip Planner

Search our weather history database for the weather conditions in past years. The results will help you decide how hot, cold, wet, or windy it might be!

Date:

Astronomy

Sep. 23, 2013 Rise Set
Actual Time 7:22 AM EDT 7:28 PM EDT
Civil Twilight 6:56 AM EDT 7:54 PM EDT
Nautical Twilight 6:26 AM EDT 8:24 PM EDT
Astronomical Twilight 5:55 AM EDT 8:54 PM EDT
Moon 10:07 PM EDT (9/23) 11:33 AM EDT (9/23)
Length of Visible Light 12h 57m
Length of Day
12h 06m
Waning Gibbous, 81% of the Moon is Illuminated
Sep 23
Waning Gibbous
Sep 26
Last Quarter
Oct 4
New
Oct 11
First Quarter
Oct 18
Full

Hourly Weather History & Observations

Time (EDT) Temp. Dew Point Humidity Pressure Visibility Wind Dir Wind Speed Gust Speed Precip Events Conditions
12:15 AM 51.8 °F 51.8 °F 100% 29.99 in 0.2 mi NNE 4.6 mph - N/A   Overcast
12:35 AM 51.8 °F 51.8 °F 100% 29.99 in 1.5 mi Calm Calm - N/A   Overcast
12:55 AM 51.8 °F 50.0 °F 94% 29.99 in 0.2 mi Calm Calm - N/A   Overcast
1:15 AM 51.8 °F 50.0 °F 94% 29.99 in 0.2 mi East 4.6 mph - N/A   Overcast
1:35 AM 51.8 °F 50.0 °F 94% 29.99 in 0.2 mi Calm Calm - N/A   Overcast
1:55 AM 50.0 °F 50.0 °F 100% 30.00 in 0.5 mi Calm Calm - N/A   Overcast
2:15 AM 51.8 °F 50.0 °F 94% 30.00 in 2.0 mi Calm Calm - N/A   Overcast
2:35 AM 50.0 °F 50.0 °F 100% 30.01 in 0.2 mi Calm Calm - N/A   Overcast
2:55 AM 50.0 °F 50.0 °F 100% 30.00 in 0.8 mi Calm Calm - N/A   Overcast
3:15 AM 50.0 °F 50.0 °F 100% 30.00 in 1.2 mi NE 4.6 mph - N/A   Overcast
3:35 AM 50.0 °F 50.0 °F 100% 30.01 in 2.5 mi ENE 4.6 mph - N/A   Overcast
3:55 AM 50.0 °F 50.0 °F 100% 30.00 in 1.8 mi Calm Calm - N/A   Overcast
4:15 AM 50.0 °F 50.0 °F 100% 30.00 in 2.0 mi Calm Calm - N/A   Overcast
4:35 AM 50.0 °F 50.0 °F 100% 30.01 in 3.0 mi ENE 3.5 mph - N/A   Overcast
4:55 AM 50.0 °F 50.0 °F 100% 30.01 in 4.0 mi Calm Calm - N/A   Overcast
5:15 AM 50.0 °F 50.0 °F 100% 30.02 in 3.0 mi Calm Calm - N/A   Overcast
5:35 AM 50.0 °F 50.0 °F 100% 30.02 in 4.0 mi ENE 4.6 mph - N/A   Overcast
5:55 AM 50.0 °F 50.0 °F 100% 30.02 in 4.0 mi Calm Calm - N/A   Overcast
6:15 AM 50.0 °F 48.2 °F 94% 30.03 in 3.0 mi ENE 3.5 mph - N/A   Overcast
6:35 AM 50.0 °F 48.2 °F 94% 30.03 in 4.0 mi Calm Calm - N/A   Overcast
6:55 AM 50.0 °F 48.2 °F 94% 30.03 in 4.0 mi ENE 3.5 mph - N/A   Overcast
7:15 AM 50.0 °F 48.2 °F 94% 30.04 in 4.0 mi ENE 3.5 mph - N/A   Overcast
7:35 AM 50.0 °F 48.2 °F 94% 30.05 in 1.8 mi NE 3.5 mph - N/A   Overcast
7:55 AM 50.0 °F 48.2 °F 94% 30.06 in 1.8 mi Calm Calm - N/A   Overcast
8:15 AM 50.0 °F 48.2 °F 94% 30.06 in 2.5 mi Calm Calm - N/A   Overcast
8:35 AM 50.0 °F 48.2 °F 94% 30.06 in 2.0 mi ENE 3.5 mph - N/A   Overcast
8:55 AM 50.0 °F 48.2 °F 94% 30.07 in 2.5 mi Calm Calm - N/A   Overcast
9:15 AM 50.0 °F 48.2 °F 94% 30.07 in 2.5 mi East 3.5 mph - N/A   Overcast
9:35 AM 50.0 °F 48.2 °F 94% 30.07 in 4.0 mi ENE 3.5 mph - N/A   Overcast
9:55 AM 50.0 °F 50.0 °F 100% 30.08 in 7.0 mi Calm Calm - N/A   Overcast
10:15 AM 51.8 °F 50.0 °F 94% 30.08 in 10.0 mi ENE 3.5 mph - N/A   Overcast
10:35 AM 53.6 °F 51.8 °F 94% 30.08 in 10.0 mi Calm Calm - N/A   Overcast
10:55 AM 57.2 °F 50.0 °F 77% 30.08 in 10.0 mi ESE 4.6 mph - N/A   Scattered Clouds
11:15 AM 60.8 °F 51.8 °F 72% 30.08 in 10.0 mi ESE 6.9 mph - N/A   Clear
11:35 AM 62.6 °F 51.8 °F 68% 30.08 in 10.0 mi Calm Calm - N/A   Clear
11:55 AM 64.4 °F 51.8 °F 64% 30.07 in 10.0 mi Calm Calm - N/A   Clear
12:15 PM 68.0 °F 51.8 °F 56% 30.07 in 10.0 mi Calm Calm - N/A   Clear
12:35 PM 68.0 °F 51.8 °F 56% 30.07 in 10.0 mi Calm Calm - N/A   Clear
12:55 PM 69.8 °F 51.8 °F 53% 30.06 in 10.0 mi Calm Calm - N/A   Clear
1:15 PM 71.6 °F 53.6 °F 53% 30.06 in 10.0 mi SW 3.5 mph - N/A   Clear
1:35 PM 71.6 °F 53.6 °F 53% 30.05 in 10.0 mi WSW 3.5 mph - N/A   Clear
2:15 PM 73.4 °F 55.4 °F 53% 30.04 in 10.0 mi WSW 4.6 mph - N/A   Scattered Clouds
2:35 PM 73.4 °F 55.4 °F 53% 30.03 in 10.0 mi NNW 4.6 mph - N/A   Scattered Clouds
2:55 PM 73.4 °F 55.4 °F 53% 30.03 in 10.0 mi Calm Calm - N/A   Mostly Cloudy
3:15 PM 73.4 °F 55.4 °F 53% 30.03 in 10.0 mi North 5.8 mph - N/A   Mostly Cloudy
3:35 PM 71.6 °F 55.4 °F 57% 30.03 in 10.0 mi North 5.8 mph - N/A   Mostly Cloudy
3:55 PM 71.6 °F 57.2 °F 60% 30.03 in 10.0 mi North - - N/A   Mostly Cloudy
4:15 PM 73.4 °F 55.4 °F 53% 30.03 in 10.0 mi NW 4.6 mph - N/A   Scattered Clouds
4:35 PM 71.6 °F 59.0 °F 64% 30.03 in 10.0 mi Calm Calm - N/A   Scattered Clouds
4:55 PM 69.8 °F 57.2 °F 64% 30.03 in 10.0 mi North 3.5 mph - N/A   Mostly Cloudy
5:15 PM 71.6 °F 55.4 °F 57% 30.03 in 10.0 mi North 5.8 mph - N/A   Scattered Clouds
5:35 PM 69.8 °F 57.2 °F 64% 30.03 in 10.0 mi North 4.6 mph - N/A   Clear
5:55 PM 68.0 °F 57.2 °F 68% 30.03 in 10.0 mi North 3.5 mph - N/A   Clear
6:15 PM 69.8 °F 59.0 °F 68% 30.03 in 10.0 mi Calm Calm - N/A   Scattered Clouds
6:35 PM 68.0 °F 59.0 °F 73% 30.03 in 10.0 mi Calm Calm - N/A   Scattered Clouds
6:55 PM 66.2 °F 59.0 °F 78% 30.03 in 10.0 mi Calm Calm - N/A   Clear
7:15 PM 66.2 °F 59.0 °F 78% 30.03 in 10.0 mi Calm Calm - N/A   Clear
7:35 PM 64.4 °F 59.0 °F 83% 30.03 in 10.0 mi Calm Calm - N/A   Clear
7:55 PM 62.6 °F 59.0 °F 88% 30.03 in 10.0 mi Calm Calm - N/A   Clear
8:15 PM 60.8 °F 59.0 °F 94% 30.03 in 10.0 mi Calm Calm - N/A   Clear
8:35 PM 60.8 °F 59.0 °F 94% 30.04 in 10.0 mi Calm Calm - N/A   Clear
8:55 PM 60.8 °F 59.0 °F 94% 30.05 in 10.0 mi Calm Calm - N/A   Clear
9:15 PM 60.8 °F 59.0 °F 94% 30.05 in 5.0 mi Calm Calm - N/A   Clear
9:35 PM 59.0 °F 57.2 °F 94% 30.05 in 4.0 mi Calm Calm - N/A   Scattered Clouds
9:55 PM 59.0 °F 59.0 °F 100% 30.06 in 5.0 mi Calm Calm - N/A   Scattered Clouds
10:15 PM 59.0 °F 57.2 °F 94% 30.06 in 10.0 mi Calm Calm - N/A   Clear
10:35 PM 59.0 °F 55.4 °F 88% 30.06 in 7.0 mi Calm Calm - N/A   Clear
10:55 PM 57.2 °F 55.4 °F 94% 30.06 in 5.0 mi East 3.5 mph - N/A   Clear
11:15 PM 55.4 °F 55.4 °F 100% 30.06 in 0.5 mi East 4.6 mph - N/A   Overcast
11:35 PM 57.2 °F 55.4 °F 94% 30.06 in 1.2 mi East 4.6 mph - N/A   Overcast
11:55 PM 57.2 °F 55.4 °F 94% 30.06 in 0.8 mi East 3.5 mph - N/A   Overcast